Terminal Aerodrome Forecast
Issued by NWS

Home | Current Version | Previous Version | Text Only | Print | Product List | Glossary On
Versions: 1 2 3 4 5 6 7 8 9 10 11 12 13 14 15 16 17 18
000
FTUS44 KCRP 190500
TAFALI
TAF
KALI 190529Z 1906/2006 21004KT P6SM BKN250
     FM191000 VRB03KT 5SM BR SCT015 BKN250
      TEMPO 1912/1914 3SM BR BKN015
     FM191500 12012KT P6SM SCT025 BKN200
     FM191800 12015G20KT P6SM SCT040 BKN150
     FM200300 13008KT P6SM SCT012 BKN080=

USA.gov is the U.S. government's official web portal to all federal, state and local government web resources and services.